Location: Hamburg
(53.5664°N, 10.0031°E)
Time: 01:51:40
(UTC+01:00)

ISS - Visible Passes

Search period start: 29 November 2021 00:00
Search period end: 09 December 2021 00:00
Orbit: 417 x 423 km, 51.6° (Epoch: 28 November)

Date Brightness Start Highest point End Pass type
(mag) Time Alt. Az. Time Alt. Az. Time Alt. Az.
29 Nov -3.2 17:05:24 10° WSW 17:08:44 55° S 17:11:56 11° E visible
29 Nov -3.0 18:42:02 10° W 18:44:54 51° SW 18:44:54 51° SW visible
30 Nov -3.5 17:54:53 10° W 17:58:15 62° S 17:59:38 32° ESE visible
30 Nov -0.7 19:31:42 10° W 19:32:37 16° W 19:32:37 16° W visible
01 Dec -3.4 17:07:43 10° W 17:11:05 64° S 17:14:23 10° E visible
01 Dec -2.6 18:44:29 10° W 18:47:22 40° SW 18:47:22 40° SW visible
02 Dec -3.0 17:57:15 10° W 18:00:34 50° SSW 18:02:11 26° SE visible
02 Dec -0.6 19:34:25 10° W 19:35:10 14° WSW 19:35:10 14° WSW visible
03 Dec -3.2 17:10:02 10° W 17:13:23 57° S 17:16:44 10° ESE visible
03 Dec -1.9 18:46:59 10° W 18:49:50 25° SSW 18:50:04 25° SSW visible
04 Dec -2.1 17:59:38 10° W 18:02:44 32° SSW 18:05:05 15° SE visible
05 Dec -2.5 17:12:21 10° W 17:15:34 41° SSW 17:18:47 10° SE visible
05 Dec -0.9 18:50:00 10° WSW 18:51:46 14° SW 18:53:16 11° S visible
06 Dec -1.1 18:02:15 10° W 18:04:42 19° SSW 18:07:09 10° SSE visible
07 Dec -1.4 17:14:45 10° W 17:17:35 25° SSW 17:20:25 10° SSE visible
